Starlink 33763

operational
NORAD ID: 63452 Int'l Des: 2025-069 Owner: SPXS Country: US Constellation: starlink
LEOCIRCULAR

Über Starlink 33763

Beschreibung wird geladen...

Live-Position

3D-Globus wird geladen...

Nächste Überflüge

Höhenverlauf

Altitude vs Time

uPlot chart will show altitude changes over time

Zweizeiliger Elementsatz

1 63452U 25069V 25351.89050567 .00022897 00000-0 78275-3 0 9998
2 63452 53.1579 162.2159 0001119 78.6943 281.4183 15.30202689 40880
Epoch: 17. Dez. 2025 • Age: 20 hours

Aktueller Status

Höhe 490.6 km
Geschwindigkeit 7.62 km/s
Subsatellitenpunkt -44.20°S, 121.99°E
Startdatum 4. Apr. 2025
Alter 0.7 years
Typ internet

Technische Details

Klassifizierung Payload
Masse 575.00 kg
Trockenmasse 530.00 kg
Gesamtmasse 575.00 kg
Länge 0.30 m
Durchmesser 4.10 m
Spannweite 29.00 m
Form Box + pan
Hersteller SPXS
Bus-Typ Starlink V2MO
Phasenstatus In Orbit
Besitzer/Staat SPXS/US

Große Konstellationen

Loading constellations...